FW0983 Weather Reports


time (UTC)temp
C
wind
direction
speed
KPH
gust
KPH
rain 1hr
cm
rain 24hr
cm
rain mn
cm
humidity
%
barometer
mb
20260906140036 27 14 4.8 12.9 0.00 0.00 0.00 80 1013.9
20260906134533 27 34 3.2 11.3 0.00 0.00 0.00 80 1013.9
20260906133042 26 30 4.8 8.0 0.00 0.00 0.00 80 1014.0
20260906131548 25 10 3.2 9.7 0.00 0.00 0.00 80 1014.0
20260906130051 25 337 3.2 6.4 0.00 0.00 0.00 80 1013.8
20260906124534 24 337 1.6 4.8 0.00 0.00 0.00 79 1013.7
20260906123036 23 0 0.0 0.0 0.00 0.00 0.00 79 1013.8
20260906121539 23 0 0.0 0.0 0.00 0.00 0.00 78 1013.3
20260906120034 23 0 0.0 0.0 0.00 0.00 0.00 78 1013.4
20260906114547 23 0 0.0 3.2 0.00 0.00 0.00 77 1013.3
20260906113037 23 0 1.6 4.8 0.00 0.00 0.00 77 1012.9
20260906111541 23 337 1.6 3.2 0.00 0.00 0.00 77 1012.5
20260906110034 24 0 0.0 3.2 0.00 0.00 0.00 77 1012.5
20260906104537 24 337 0.0 3.2 0.00 0.00 0.00 76 1012.4
20260906103032 24 0 0.0 0.0 0.00 0.00 0.00 76 1012.5
20260906101537 24 0 0.0 4.8 0.00 0.00 0.00 76 1012.4
20260906100036 25 0 1.6 4.8 0.00 0.00 0.00 75 1012.4
20260906094539 25 355 0.0 4.8 0.00 0.00 0.00 75 1012.3
20260906093037 25 19 1.6 6.4 0.00 0.00 0.00 75 1012.4
20260906091536 25 350 3.2 6.4 0.00 0.00 0.00 74 1012.1
20260906090047 24 350 3.2 6.4 0.00 0.00 0.00 74 1012.2
20260906084538 24 0 0.0 0.0 0.00 0.00 0.00 74 1012.0
20260906083037 25 0 0.0 0.0 0.00 0.00 0.00 73 1012.0
20260906081533 25 0 0.0 0.0 0.00 0.00 0.00 73 1012.1
20260906080039 25 0 0.0 0.0 0.00 0.00 0.00 72 1011.9
20260906074534 25 0 0.0 0.0 0.00 0.00 0.00 72 1011.9
20260906073034 25 0 0.0 0.0 0.00 0.00 0.00 72 1012.2
20260906071536 25 0 0.0 0.0 0.00 0.00 0.00 71 1012.1
20260906070035 25 0 0.0 0.0 0.00 0.00 0.00 70 1012.1
20260906064534 26 0 0.0 0.0 0.00 0.00 0.00 70 1012.1
20260906063037 26 0 0.0 0.0 0.00 0.00 0.00 70 1012.2
20260906061534 26 0 0.0 0.0 0.00 0.00 0.00 69 1012.3
20260906060038 26 0 0.0 0.0 0.00 0.00 0.00 68 1012.4
20260906054542 26 0 0.0 0.0 0.00 0.00 0.00 67 1012.3
20260906053032 26 0 0.0 0.0 0.00 0.00 0.00 66 1012.3
20260906051536 26 0 0.0 0.0 0.00 0.00 0.00 65 1012.1
20260906050036 27 0 0.0 0.0 0.00 0.00 0.00 65 1012.1
20260906044535 27 0 0.0 0.0 0.00 0.00 0.00 64 1012.2
20260906043034 27 0 0.0 0.0 0.00 0.00 0.00 63 1011.8
20260906041535 27 0 0.0 0.0 0.00 0.00 0.00 62 1012.0
20260906040036 27 0 0.0 0.0 0.00 0.00 0.00 61 1012.0
20260906034551 28 0 0.0 0.0 0.00 0.00 0.00 60 1012.0
20260906033039 28 0 0.0 0.0 0.00 0.00 0.00 59 1012.1
20260906031537 29 0 0.0 0.0 0.00 0.00 0.00 58 1012.2
20260906030035 29 0 0.0 0.0 0.00 0.00 0.00 57 1012.2
20260906024536 29 0 0.0 0.0 0.00 0.00 0.00 56 1012.1
20260906023036 30 0 0.0 0.0 0.00 0.00 0.00 54 1011.9
20260906021542 30 0 0.0 0.0 0.00 0.00 0.00 53 1011.6
20260906020036 30 0 0.0 0.0 0.00 0.00 0.00 52 1011.4
20260906014536 31 0 0.0 0.0 0.00 0.00 0.00 51 1011.1
20260906013035 31 0 0.0 0.0 0.00 0.00 0.00 49 1011.1
20260906011533 32 0 0.0 0.0 0.00 0.00 0.00 48 1010.8
20260906010040 33 0 0.0 0.0 0.00 0.00 0.00 47 1010.6
20260906004541 34 0 0.0 0.0 0.00 0.00 0.00 45 1010.5
20260906003036 35 0 0.0 0.0 0.00 0.00 0.00 44 1010.5
20260906001551 36 0 0.0 0.0 0.00 0.00 0.00 43 1010.5
20260906000039 37 0 0.0 0.0 0.00 0.00 0.00 43 1010.5
20260905234538 37 0 0.0 1.6 0.00 0.00 0.00 42 1010.7
20260905233035 38 198 1.6 3.2 0.00 0.00 0.00 42 1010.6
20260905231536 38 0 0.0 3.2 0.00 0.00 0.00 41 1010.8
20260905230039 38 198 3.2 6.4 0.00 0.00 0.00 41 1010.8
20260905224536 38 111 1.6 6.4 0.00 0.00 0.00 40 1010.8
20260905223047 39 111 0.0 8.0 0.00 0.00 0.00 40 1010.6
20260905221537 39 150 0.0 8.0 0.00 0.00 0.00 40 1010.7
20260905220035 38 0 1.6 9.7 0.00 0.00 0.00 41 1010.8
20260905214544 38 193 1.6 11.3 0.00 0.00 0.00 41 1010.8
20260905213038 38 105 1.6 11.3 0.00 0.00 0.00 42 1010.7
20260905211535 38 0 3.2 11.3 0.00 0.00 0.00 43 1010.9
20260905210045 38 134 3.2 12.9 0.00 0.00 0.00 44 1011.1
20260905204534 38 205 3.2 8.0 0.00 0.00 0.00 45 1011.3
20260905203032 38 98 3.2 9.7 0.00 0.00 0.00 46 1011.8
20260905201534 38 58 1.6 12.9 0.00 0.00 0.00 46 1012.0
20260905200101 38 279 3.2 11.3 0.00 0.00 0.00 48 1012.2
20260905194534 38 155 4.8 14.5 0.00 0.00 0.00 50 1012.4
20260905193036 37 102 4.8 16.1 0.00 0.00 0.00 51 1012.5
20260905191534 37 68 3.2 11.3 0.00 0.00 0.00 53 1012.9
20260905190034 37 227 4.8 11.3 0.00 0.00 0.00 55 1013.0
20260905184545 37 313 1.6 9.7 0.00 0.00 0.00 56 1013.0
20260905183039 37 200 3.2 8.0 0.00 0.00 0.00 58 1013.3
20260905181545 37 265 3.2 12.9 0.00 0.00 0.00 55 1013.3
20260905180040 36 63 4.8 12.9 0.00 0.00 0.00 58 1013.6
20260905174535 36 142 3.2 9.7 0.00 0.00 0.00 60 1013.6
20260905173043 36 131 4.8 12.9 0.00 0.00 0.00 62 1013.7
20260905171538 36 273 1.6 12.9 0.00 0.00 0.00 65 1013.9
20260905170036 35 5 3.2 12.9 0.00 0.00 0.00 67 1014.1
20260905164537 35 93 4.8 11.3 0.00 0.00 0.00 69 1014.4
20260905163035 35 60 4.8 12.9 0.00 0.00 0.00 71 1014.6
20260905161537 34 13 6.4 14.5 0.00 0.00 0.00 73 1014.8
20260905160036 33 352 6.4 12.9 0.00 0.00 0.00 75 1014.6
20260905154536 33 360 6.4 14.5 0.00 0.00 0.00 77 1014.7
20260905153037 32 9 3.2 12.9 0.00 0.00 0.00 78 1014.6
20260905151541 32 360 3.2 8.0 0.00 0.00 0.00 80 1014.7
20260905150039 31 5 1.6 8.0 0.00 0.00 0.00 81 1014.7
20260905144543 31 337 3.2 8.0 0.00 0.00 0.00 82 1014.8
20260905143037 30 145 0.0 4.8 0.00 0.00 0.00 82 1014.9
20260905141536 30 0 1.6 4.8 0.00 0.00 0.00 83 1014.7